Location: Fontevrault
(47.1823°N, 0.0493°E)
Time: 04:14:10
(UTC+00:00)

Uosat 12 SS-18 rocket - Pass Details

Date: 26 October 2021
Orbit: 579 x 1405 km, 64.6° (Epoch: 01 December)

Event Time Altitude Azimuth Distance (km) Brightness Sun altitude
Rises 19:48:46 0° 308° (NW) 3,546 8.9 -30.4°
Reaches altitude 10° 19:52:00 10° 326° (NNW) 2,758 7.9 -30.9°
Maximum altitude 19:56:32 19° 10° (N) 2,365 7.0 -31.6°
Enters shadow 19:57:39 18° 22° (NNE) 2,445 7.0 -31.8°
